Flag Weather past 2 weeks in Nashville, Tennessee, U.S.A.

Now
62 °F

Mostly cloudy.


Feels Like: 62 °F
Forecast: 42 / 61 °F
Wind: 16 mph from Southwest

Location: Nashville International Airport

Current Time: Nov 23, 2014 at 9:14:42 PM

Latest Report: Nov 23, 2014 at 8:53 PM


Visibility: 10 mi

Pressure: 29.44 "Hg

Humidity: 90%

Dew point: 59 °F

Location of NashvilleLocation

Historic Weather in Nashville — Graph

°F

Nashville temperature yesterday

Maximum temperature yesterday: 64 °F (at 2:53 PM)
Minimum temperature yesterday: 44 °F (at 5:53 AM)
Average temperature yesterday: 55 °F

Past Weeks' High & Low Weather Summary

 TemperatureHumidityPressure
High69 °F (Nov 11, 10:53 AM)97% (Nov 9, 5:53 AM)30.48 "Hg (Nov 9, 5:53 AM)
Low19 °F (Nov 18, 10:53 PM)27% (Nov 20, 2:53 PM)29.36 "Hg (Nov 23, 6:53 PM)
Average41 °F63%30.17 "Hg
* Reported Nov 8 8:53 PM — Nov 23 8:02 PM, Nashville, Weather by CustomWeather, © 2014

Note: Actual official high and low records may vary slightly from our data, if they occured in-between our weather recording intervals... More about our weather records

Advertising

Nashville weather history for previous 24 hours

 ConditionsComfort  
Time TempWeatherWind HumidityBarometerVisibility
8:02 PM
Nov 23
61 °FLight rain. Fog.17 mph94%29.40 "Hg6 mi
7:53 PM61 °FLight rain. Fog.16 mph90%29.39 "Hg5 mi
6:53 PM59 °FFog.17 mph93%29.36 "Hg5 mi
5:53 PM59 °FMostly cloudy.16 mph90%29.40 "Hg10 mi
4:53 PM59 °FMostly cloudy.18 mph90%29.43 "Hg10 mi
3:53 PM58 °FLight rain. Mostly cloudy.21 mph93%29.43 "Hg9 mi
2:53 PM59 °FLight rain. Mostly cloudy.17 mph90%29.48 "Hg7 mi
1:53 PM59 °FLight rain. Overcast.14 mph90%29.53 "Hg8 mi
12:53 PM59 °FOvercast.13 mph87%29.59 "Hg10 mi
11:53 AM58 °FLight rain. Mostly cloudy.15 mph90%29.67 "Hg2 mi
10:53 AM58 °FLight rain. Mostly cloudy.16 mph90%29.75 "Hg8 mi
9:53 AM59 °FLight rain. Overcast.10 mph81%29.81 "Hg10 mi
8:53 AM59 °FMostly cloudy.8 mph75%29.84 "Hg10 mi
7:53 AM57 °FOvercast.9 mph72%29.86 "Hg10 mi
6:53 AM54 °FMore clouds than sun.6 mph69%29.89 "Hg10 mi
5:53 AM54 °FMostly cloudy.5 mph64%29.91 "Hg10 mi
4:53 AM55 °FMostly cloudy.6 mph59%29.94 "Hg10 mi
3:53 AM54 °FOvercast.6 mph57%29.94 "Hg10 mi
2:53 AM55 °FOvercast.9 mph53%29.97 "Hg10 mi
1:53 AM53 °FPassing clouds.7 mph55%30.02 "Hg10 mi
12:53 AM54 °FPassing clouds.8 mph53%30.02 "Hg10 mi
11:53 PM
Nov 22
55 °FPartly cloudy.8 mph51%30.06 "Hg10 mi
10:53 PM55 °FOvercast.8 mph51%30.07 "Hg10 mi
9:53 PM54 °FPassing clouds.10 mph55%30.10 "Hg10 mi
Weather by CustomWeather, © 2014

See weather overviewHow to use our weather pages